St. Johns, AZ

8:31 PM MST on October 23, 2019 (GMT -0700)
Saint Johns Industrial

Weather History for KSJN - August, 2019

Change the Weather History Date:

Friday, August 16, 2019

  Actual Average (KLSB) Record (KLSB)
Temperature  
Mean Temperature 70 °F -  
Max Temperature 89 °F 93 °F 98 °F (2015)
Min Temperature 51 °F 61 °F 60 °F (2016)
Cooling Degree Days 5    
Growing Degree Days 20 (Base 50)    
Moisture  
Dew Point 34 °F    
Average Humidity 26    
Maximum Humidity 69    
Minimum Humidity 6    
Precipitation  
Precipitation 0.00 in - - ()
Sea Level Pressure  
Sea Level Pressure 29.88 in    
Wind  
Wind Speed 7 mph (West)    
Max Wind Speed 20 mph    
Max Gust Speed 24 mph    
Visibility 10 miles    
Events      
Averages and records for this station are not official NWS values.
T = Trace of Precipitation, MM = Missing Value Source: NWS Daily Summary

Daily Weather History Graph

Daily Weather History Graph

Search for Another Location

Airport or City:

Astronomy

Aug. 16, 2019 Rise Set
Actual Time 5:38 AM MST 7:04 PM MST
Civil Twilight 5:12 AM MST 7:30 PM MST
Nautical Twilight 4:40 AM MST 8:02 PM MST
Astronomical Twilight 4:07 AM MST 8:35 PM MST
Moon 8:06 PM MST (8/16) 6:33 AM MST (8/16)
Length of Visible Light 14h 18m
Length of Day
13h 25m
Full, 99% of the Moon is Illuminated
Aug 16
Full
Aug 23
Last Quarter
Aug 30
New
Sep 5
First Quarter
Sep 13
Full

Hourly Weather History & Observations

Time (MST) Temp. Dew Point Humidity Pressure Visibility Wind Dir Wind Speed Gust Speed Precip Events Conditions
12:54 AM 66.9 °F 44.1 °F 44% 29.86 in 10.0 mi ENE 5.8 mph - N/A   Clear
1:54 AM 63.0 °F 44.1 °F 50% 29.90 in 10.0 mi NE 3.5 mph - N/A   Clear
2:54 AM 61.0 °F 45.0 °F 56% 29.89 in 10.0 mi Calm Calm - N/A   Clear
3:54 AM 59.0 °F 45.0 °F 60% 29.92 in 10.0 mi South 3.5 mph - N/A   Clear
4:54 AM 55.0 °F 44.1 °F 67% 29.94 in 10.0 mi North 3.5 mph - N/A   Clear
5:54 AM 54.0 °F 44.1 °F 69% 29.96 in 10.0 mi Calm Calm - N/A   Clear
6:54 AM 64.9 °F 43.0 °F 45% 29.96 in 10.0 mi Calm Calm - N/A   Clear
7:54 AM 75.0 °F 45.0 °F 34% 29.93 in 10.0 mi ENE 3.5 mph - N/A   Clear
8:54 AM 80.1 °F 43.0 °F 27% 29.93 in 10.0 mi NNW 4.6 mph - N/A   Clear
9:54 AM 86.0 °F 28.9 °F 13% 29.91 in 10.0 mi WNW 11.5 mph 18.4 mph N/A   Clear
10:54 AM 89.1 °F 28.0 °F 11% 29.90 in 10.0 mi NW 13.8 mph 20.7 mph N/A   Clear
11:54 AM 91.0 °F 28.9 °F 11% 29.87 in 10.0 mi West 17.3 mph 21.9 mph N/A   Clear
12:47 PM 91.0 °F 28.0 °F 10% 30.18 in 10.0 mi SSW 10.4 mph 17.3 mph N/A   Clear
12:54 PM 91.0 °F 27.0 °F 10% 29.86 in 10.0 mi Variable 5.8 mph 21.9 mph N/A   Clear
1:54 PM 90.0 °F 30.9 °F 12% 29.84 in 10.0 mi West 10.4 mph 20.7 mph N/A   Clear
2:54 PM 93.0 °F 28.9 °F 10% 29.81 in 10.0 mi SW 12.7 mph 24.2 mph N/A   Clear
3:54 PM 91.9 °F 30.0 °F 11% 29.80 in 10.0 mi WSW 15.0 mph 20.7 mph N/A   Clear
4:54 PM 91.9 °F 28.0 °F 10% 29.80 in 10.0 mi West 16.1 mph - N/A   Clear
5:54 PM 89.1 °F 28.9 °F 12% 29.80 in 10.0 mi WSW 17.3 mph 20.7 mph N/A   Clear
6:54 PM 84.9 °F 27.0 °F 12% 29.78 in 10.0 mi WSW 10.4 mph - N/A   Clear
7:54 PM 80.1 °F 28.0 °F 15% 29.78 in 10.0 mi WSW 9.2 mph - N/A   Clear
8:54 PM 75.9 °F 32.0 °F 20% 29.80 in 10.0 mi SW 15.0 mph - N/A   Clear
9:54 PM 75.0 °F 30.9 °F 20% 29.78 in 10.0 mi WSW 15.0 mph - N/A   Clear
10:54 PM 73.0 °F 30.9 °F 21% 29.79 in 10.0 mi WSW 13.8 mph - N/A   Clear
11:54 PM 71.1 °F 32.0 °F 24% 29.80 in 10.0 mi Calm Calm - N/A   Clear